EHI
12 14 16 13 6 1 0 0 0 0 0 0 0 0 0 0 0 0 0 0 1 2 2 2 2 1 0 0 1 2 3 3 3 3 3 1 0 0 1 1 0 0 0 0 0 0 0 0 0
12 11 10 8 3 0 0 0 0 0 0 0 0 0 0 0 0 0 0 0 0 1 1 2 2 1 0 0 0 1 2 3 3 3 3 2 2 2 2 2 1 0 0 0 0 0 0 1 1
12 10 7 3 1 0 0 0 0 0 0 0 0 0 0 0 0 0 0 0 0 0 1 2 2 1 0 0 0 0 1 2 3 3 3 3 3 3 3 3 2 1 0 0 0 0 1 1 2
13 11 5 1 0 0 0 0 0 0 0 0 0 0 0 0 0 0 0 0 0 1 2 3 2 1 0 0 0 0 1 1 2 2 2 2 2 2 2 2 2 1 0 0 0 1 1 1 1
13 8 3 0 0 0 0 0 0 0 0 0 0 0 1 1 1 1 0 0 0 1 2 2 2 2 1 1 1 0 0 0 0 1 1 1 0 0 1 1 1 1 0 0 0 0 0 0 0
9 5 1 0 0 0 0 0 0 0 0 0 0 0 0 1 2 1 1 0 0 1 1 1 2 3 3 3 2 0 0 0 0 0 0 0 0 0 0 0 0 0 0 0 0 0 0 0 0
5 2 0 0 0 0 0 0 0 0 0 0 0 0 0 1 2 2 1 0 0 0 0 0 1 2 3 2 1 0 0 0 0 0 0 0 0 0 0 0 0 0 0 0 0 0 0 0 0
2 1 0 0 0 0 0 0 0 0 0 0 0 0 0 1 2 1 1 1 0 0 0 0 0 1 2 1 1 1 1 1 0 0 0 0 0 0 0 0 0 0 0 0 0 0 0 0 0
1 0 0 0 0 0 0 0 0 0 0 0 0 0 0 1 1 0 1 2 1 0 0 0 0 0 1 1 1 1 2 1 0 0 0 0 0 0 0 0 0 0 0 0 0 0 0 0 0
0 0 0 0 0 0 0 0 0 0 0 0 0 0 0 0 0 0 2 3 2 1 0 0 0 0 0 0 0 1 1 1 0 0 0 0 0 0 0 0 0 0 0 0 0 0 0 0 0
0 0 0 0 0 0 0 0 0 0 0 0 0 0 0 0 0 0 1 3 3 1 0 0 0 0 0 0 0 0 0 0 0 0 0 0 0 0 0 0 0 0 0 0 0 0 0 0 0
0 0 0 0 0 0 0 0 0 0 0 0 0 0 0 0 0 0 1 2 2 2 1 0 0 0 0 0 0 0 0 0 0 0 0 0 0 0 0 0 0 0 0 0 0 0 0 0 0
0 0 0 0 0 0 0 0 0 0 0 0 0 0 0 0 0 0 0 1 1 2 1 0 0 0 0 0 0 0 0 0 0 0 0 0 0 0 0 0 0 0 0 0 0 0 0 0 0
0 0 0 0 0 0 0 0 0 0 0 0 0 0 0 0 0 0 0 0 1 2 2 1 0 0 0 0 0 0 0 0 0 0 0 0 0 0 0 0 0 0 0 0 0 0 0 0 0
0 0 0 0 0 0 0 0 0 0 0 0 0 0 0 0 0 0 0 0 0 1 1 1 0 0 0 0 0 0 0 0 0 0 0 0 0 0 0 0 0 0 0 0 0 0 0 0 0
0 0 0 0 0 0 0 0 0 0 0 0 0 0 0 0 0 0 0 0 0 0 0 0 0 0 0 0 0 0 0 0 0 0 0 0 0 0 0 0 0 0 0 0 0 0 0 0 0
0 0 0 0 0 0 0 0 0 0 0 0 0 0 0 0 0 0 0 0 0 0 0 0 0 0 0 0 0 1 1 1 0 0 0 0 0 0 0 0 0 0 0 0 0 0 0 0 0
0 0 0 0 0 0 0 0 0 0 0 0 0 0 0 0 0 0 0 0 0 0 0 0 0 0 0 0 0 1 2 1 0 0 0 0 0 0 0 0 0 0 0 0 0 0 0 0 0
0 0 0 0 0 0 0 0 0 0 0 0 0 0 0 0 0 0 0 0 0 0 0 0 0 0 0 0 0 1 2 1 0 0 0 0 0 0 0 0 0 0 0 0 0 0 0 0 0
0 0 0 0 0 0 0 0 0 0 0 0 0 0 0 0 0 0 0 0 0 0 0 0 0 0 0 0 0 1 1 0 0 0 0 0 0 0 0 0 0 0 0 0 0 0 0 0 0
0 0 0 0 0 0 0 0 0 0 0 0 0 1 1 0 0 0 0 0 0 0 0 0 0 0 0 0 0 0 0 0 0 0 0 0 0 0 0 0 0 0 0 0 0 0 0 0 0
0 0 0 0 0 0 0 0 0 0 0 0 0 1 1 1 1 0 0 0 0 0 0 0 0 0 0 0 0 0 0 1 1 0 0 0 0 0 0 0 0 0 0 0 0 0 0 0 0
0 0 0 0 0 0 0 0 0 0 0 0 0 0 1 2 2 2 1 1 1 0 0 0 0 0 0 1 1 1 1 1 2 1 0 0 0 0 0 0 0 0 0 0 0 0 0 0 1
0 0 0 0 0 0 0 0 0 0 0 0 0 0 0 1 3 4 3 3 3 2 1 0 0 0 1 2 2 2 2 2 2 1 0 0 0 0 0 0 0 0 0 0 0 0 0 1 2
0 0 0 0 0 0 0 0 0 0 0 0 0 0 0 1 3 5 6 6 6 5 3 1 0 1 2 2 2 2 3 3 2 1 0 1 0 0 0 0 0 0 0 0 0 0 0 1 2
0 0 0 0 0 0 0 0 0 0 0 0 0 0 0 0 2 5 7 8 7 6 5 3 1 2 3 2 1 1 2 3 3 1 0 0 0 0 0 0 0 0 0 0 0 0 0 1 1
0 0 0 0 0 0 0 0 0 0 0 0 0 0 0 0 2 5 7 8 6 6 6 4 2 2 3 3 1 1 2 3 3 2 1 0 0 0 0 0 0 0 0 0 0 0 0 1 1
0 0 0 0 0 0 0 0 0 0 0 1 0 0 0 0 2 4 6 6 6 5 5 5 3 3 4 4 3 3 3 3 3 3 2 1 0 0 0 0 0 0 0 0 0 0 0 0 0
0 0 0 0 0 0 0 0 0 0 0 0 0 0 0 0 1 2 3 5 6 5 4 4 3 4 5 5 5 4 3 3 4 3 2 1 0 0 0 0 0 0 0 0 0 0 0 0 0
0 0 0 0 0 0 0 0 0 0 0 0 0 0 0 0 0 1 2 4 6 5 4 3 4 5 6 6 5 3 2 3 4 3 1 0 0 0 0 0 0 0 0 0 0 0 0 0 0
Wind_Speed
8 9 6 2 2 2 2 5 6 6 7 9 9 9 11 12 9 8 2 5 8 9 10 10 10 11 11 11 11 11 11 11 11 11 11 11 11 11 11 11 11 11 11 11 11 11 10 9 9
9 6 3 2 2 0 4 6 8 8 7 6 8 11 11 11 10 8 4 6 8 10 9 9 10 10 10 11 11 11 11 11 11 11 11 11 11 11 11 10 11 11 11 11 11 11 12 11 10
10 6 3 2 1 3 5 7 7 8 6 6 8 10 8 7 8 6 5 7 9 10 10 10 11 11 10 10 11 10 10 10 10 11 11 11 10 11 10 10 11 11 11 11 12 12 13 13 12
5 3 4 1 4 6 6 6 5 7 6 7 8 9 8 7 6 7 6 8 10 10 10 10 11 11 10 10 10 10 10 10 10 10 10 10 10 10 10 10 11 11 11 11 12 12 12 12 11
3 3 2 1 5 7 6 5 6 6 6 8 10 10 9 8 9 8 6 8 9 9 9 10 11 10 9 9 9 9 10 10 10 10 10 9 9 10 10 10 11 11 10 11 11 11 11 11 10
3 3 1 2 6 6 6 5 6 7 8 8 9 9 7 7 7 6 6 6 7 8 9 9 10 10 9 9 9 9 9 9 9 9 9 9 9 9 10 10 10 10 10 10 10 11 11 10 10
3 2 1 3 5 5 5 6 7 7 8 7 7 8 8 7 5 6 6 6 6 7 7 8 8 8 9 9 9 8 8 8 8 8 8 8 8 8 9 10 10 10 10 9 9 9 9 9 8
3 3 1 3 5 4 4 6 7 7 7 6 6 7 8 7 5 6 6 6 6 6 5 5 7 7 7 7 8 8 7 7 7 7 7 7 7 8 8 9 9 9 9 8 8 7 7 7 7
3 2 2 3 4 4 4 6 6 6 8 8 10 10 11 10 7 5 6 6 5 5 4 4 5 5 6 7 7 6 7 6 5 4 6 5 3 4 5 8 8 8 7 6 5 4 4 4 4
1 1 3 4 4 4 5 5 4 5 7 8 10 12 11 8 6 5 5 6 6 5 4 4 4 4 4 4 5 3 4 4 4 3 4 3 3 4 6 7 7 6 6 4 3 3 2 2 1
1 3 3 4 5 4 5 5 4 5 5 6 8 9 9 8 5 5 5 6 5 5 4 3 4 4 3 3 3 1 2 2 1 2 3 3 3 3 4 3 3 3 4 2 2 2 1 2 3
2 3 4 5 4 4 4 5 6 7 6 7 8 8 8 7 6 5 5 6 6 5 3 3 3 3 3 4 3 2 1 1 2 2 3 3 2 2 2 2 2 2 1 2 2 2 3 4 5
2 3 4 4 3 4 5 6 6 6 6 8 8 7 6 6 5 5 5 6 6 6 4 3 3 3 3 3 2 3 2 2 3 2 2 3 2 2 2 2 2 2 2 2 2 3 4 5 5
2 3 4 3 3 3 5 5 4 4 5 7 7 6 4 4 4 5 5 5 6 6 5 3 4 4 4 3 3 3 3 2 3 2 2 3 2 2 3 3 3 3 2 2 3 4 4 4 4
2 3 3 3 3 3 3 3 4 5 5 6 6 6 5 4 3 4 4 4 5 6 5 4 4 4 4 4 4 3 2 3 3 2 3 3 3 3 3 3 3 2 3 4 4 4 3 3 4
5 4 3 3 3 4 3 2 5 5 6 5 5 6 5 4 3 4 4 4 4 5 6 4 4 4 4 4 3 2 3 3 2 2 3 4 4 4 4 3 3 3 3 3 3 3 3 3 3
5 5 5 4 5 4 3 3 6 5 6 5 5 6 6 5 3 3 4 4 4 5 6 5 4 4 4 4 3 2 3 3 2 3 3 3 4 5 3 3 3 4 3 3 3 3 3 3 3
5 5 4 4 5 5 4 4 7 6 6 6 5 5 6 5 4 4 4 5 4 4 5 5 5 3 3 3 3 3 3 3 3 3 3 3 3 4 3 2 3 4 3 3 3 4 3 2 2
5 4 2 3 3 3 3 4 7 8 6 5 5 5 6 6 5 5 5 5 4 4 5 5 5 3 3 2 2 2 2 2 2 2 3 3 3 3 3 2 2 3 3 3 3 3 3 2 2
6 5 2 2 4 3 3 4 5 7 8 6 6 6 6 6 6 6 5 4 4 4 4 5 4 4 3 2 2 2 2 2 2 2 2 3 3 3 2 2 2 3 3 3 2 2 1 1 1
6 6 4 2 3 5 5 5 7 8 8 7 6 5 6 6 6 7 6 4 3 3 3 4 4 4 4 3 2 3 3 1 2 2 2 2 3 3 3 2 2 2 3 2 1 1 2 1 1
5 4 4 4 4 4 6 3 6 9 8 8 7 6 5 5 6 7 6 5 4 4 4 3 3 4 4 4 3 3 2 2 2 2 1 1 2 2 2 2 2 2 2 2 1 2 1 1 1
5 5 6 7 7 8 8 6 4 8 8 8 8 7 6 6 6 7 7 6 5 4 4 3 3 3 4 4 4 3 2 2 2 2 2 2 2 2 2 2 2 2 2 2 2 2 2 1 1
5 6 8 7 6 8 8 5 2 5 7 8 8 7 6 6 6 7 7 6 5 5 4 3 3 3 3 4 4 4 3 3 3 2 2 2 1 1 1 1 1 1 1 2 2 2 2 1 1
6 4 3 4 5 5 3 2 2 4 5 5 6 7 6 6 6 5 6 6 5 5 4 3 3 2 3 3 4 4 4 4 4 4 3 2 2 1 1 1 1 1 1 2 2 1 1 1 1
5 6 4 3 3 2 3 3 4 6 6 5 5 6 6 6 6 5 6 6 6 6 5 4 4 4 3 3 2 3 4 3 3 3 3 3 2 2 2 1 1 1 1 2 2 1 1 1 2
6 6 7 7 9 6 2 4 6 6 5 4 5 6 5 5 5 5 6 5 5 6 5 5 4 4 4 3 3 3 3 3 3 3 3 2 3 3 3 2 2 1 1 2 2 2 1 2 2
8 6 4 4 4 5 3 3 3 6 4 4 5 5 5 5 5 4 4 5 4 5 5 5 5 4 4 4 3 2 2 3 3 3 3 3 3 3 3 2 3 2 2 2 2 1 1 2 2
7 7 5 4 4 3 2 1 4 6 5 4 4 5 5 4 4 4 3 3 4 3 4 4 4 4 3 3 3 3 3 3 3 2 3 3 3 3 3 3 3 3 2 2 2 2 1 1 1
7 7 6 5 5 5 4 1 4 6 5 3 4 5 5 4 4 4 4 4 3 3 2 2 3 3 3 2 3 4 4 4 4 3 3 3 3 4 3 3 3 2 2 2 2 2 1 1 1
Wind_Direction
270 254 249 269 258 225 57 68 81 65 58 53 51 59 62 52 51 87 108 74 85 94 96 86 80 80 80 77 72 73 74 74 75 78 80 82 82 80 79 76 72 70 69 68 65 62 59 62 71
278 278 267 242 260 126 76 73 73 69 73 74 66 66 67 66 72 93 94 80 86 91 91 87 85 81 82 79 74 74 75 75 77 80 82 84 83 80 78 76 73 71 70 68 65 62 55 63 74
262 263 263 251 8 53 78 80 84 82 74 72 73 63 58 61 76 93 106 103 91 90 92 89 88 85 83 79 75 75 76 78 81 82 84 83 82 80 78 77 74 72 71 68 66 63 60 63 66
266 257 243 251 64 60 79 97 103 92 81 75 81 76 74 56 79 102 111 107 99 98 98 97 93 89 86 80 77 78 77 79 82 83 85 84 83 81 77 75 74 73 72 69 66 66 66 63 59
251 261 253 102 77 77 72 72 79 84 82 75 81 88 85 77 93 105 107 104 103 102 105 108 102 98 92 87 84 81 80 83 84 85 86 85 85 82 78 76 74 73 73 72 70 70 67 62 55
271 265 283 84 82 80 70 60 70 79 87 84 94 96 94 105 103 106 105 104 107 112 113 116 118 111 102 94 90 86 84 85 87 88 89 90 89 86 82 80 78 77 77 79 76 73 69 62 56
287 302 327 83 92 78 70 61 62 74 75 68 84 97 110 109 108 114 114 110 108 112 120 130 130 122 115 107 102 98 96 96 97 99 101 101 100 96 92 87 85 85 83 81 80 79 74 68 61
287 297 353 74 92 80 69 72 69 71 72 66 66 101 119 125 130 125 119 111 111 111 118 125 129 135 131 123 118 119 118 114 117 123 125 120 114 112 105 94 90 91 90 89 88 87 87 80 69
274 303 36 57 79 92 101 94 88 89 83 71 71 91 112 126 130 129 122 115 107 105 110 115 124 129 134 136 135 145 145 142 143 156 165 159 148 130 109 98 103 103 101 102 104 108 108 105 88
220 30 49 55 87 113 108 97 103 102 93 90 90 98 115 129 138 134 129 126 120 119 118 114 115 120 121 121 139 163 157 157 187 176 169 173 110 93 102 116 122 126 124 128 146 168 179 183 108
59 79 68 62 72 87 96 89 68 81 83 97 113 120 131 139 140 136 128 119 118 110 99 107 114 113 121 114 120 119 118 149 133 78 98 94 105 128 126 140 147 159 162 162 154 188 204 101 89
84 80 78 78 77 86 87 89 78 65 72 95 112 130 141 145 142 136 125 122 126 118 116 110 113 119 120 108 109 119 104 99 83 60 79 77 66 80 101 112 119 125 105 78 71 65 57 59 67
118 106 93 88 95 90 92 90 89 86 93 106 119 129 137 136 138 135 135 131 129 127 122 109 100 94 100 99 100 95 75 60 77 46 58 74 61 66 76 85 75 70 79 87 64 62 61 57 48
106 119 122 130 120 119 115 111 112 108 122 125 130 131 133 131 138 135 136 134 136 134 134 126 115 104 96 93 80 77 77 65 64 44 31 73 70 63 66 69 65 57 54 63 75 73 73 72 67
172 180 158 159 163 146 135 120 127 135 146 140 139 135 127 129 138 135 130 131 127 129 128 122 114 106 97 85 72 75 74 75 67 43 25 56 60 66 72 67 75 66 57 53 57 61 64 72 72
217 207 189 174 176 167 210 150 128 147 157 147 145 139 145 152 159 145 137 126 121 120 118 114 105 94 96 98 89 83 75 70 71 56 23 36 58 72 71 63 70 70 64 64 64 64 63 63 70
227 226 191 176 185 181 202 153 148 164 160 154 154 151 158 158 153 140 140 133 126 121 122 124 102 95 88 97 99 76 83 73 65 60 39 30 45 63 71 60 68 69 59 55 64 61 67 73 78
237 232 197 181 179 193 202 173 159 175 177 170 166 165 161 161 164 157 146 132 128 124 124 123 110 101 96 92 90 71 58 69 66 59 47 31 45 60 68 63 67 76 67 55 64 67 58 72 72
287 272 210 151 159 205 219 196 172 172 176 172 170 171 164 165 163 155 144 135 136 131 124 122 127 122 106 96 96 92 71 63 67 61 61 45 42 52 70 71 61 77 80 75 81 82 74 67 82
272 270 239 173 167 217 232 215 176 171 180 183 185 179 176 168 163 148 139 142 144 137 138 134 136 133 117 102 106 113 103 87 81 61 55 56 53 43 57 91 90 86 87 75 75 81 72 49 80
258 265 264 243 217 220 240 228 190 179 183 181 188 178 171 173 170 159 154 150 144 145 144 142 146 137 132 129 111 98 85 73 87 82 65 53 62 58 42 46 84 108 118 122 116 110 99 68 346
267 276 283 268 262 249 224 242 191 179 181 182 185 179 172 171 168 157 155 154 159 157 147 149 146 146 146 137 130 139 145 146 133 116 117 103 85 70 58 42 71 93 103 119 142 109 93 92 345
279 303 278 263 262 266 245 248 187 170 184 185 182 179 176 172 168 159 160 160 160 158 152 154 154 152 154 155 154 165 150 146 129 120 118 104 97 88 71 48 58 78 98 110 95 82 78 80 91
260 266 257 250 256 258 243 231 177 178 183 179 172 168 167 165 164 161 160 154 156 149 142 147 154 162 163 171 167 174 160 150 135 130 134 121 109 90 73 67 64 78 88 98 103 102 105 93 74
243 259 260 230 222 236 194 170 121 107 102 126 149 157 160 157 152 153 153 149 148 148 150 156 154 169 180 191 180 174 173 166 166 164 162 156 146 140 129 96 56 70 91 95 92 98 119 123 93
239 243 255 278 277 266 174 155 118 93 84 93 122 132 143 150 153 154 149 147 153 156 159 167 174 185 191 193 191 181 168 166 167 164 157 154 148 148 139 125 103 74 84 94 86 76 70 80 80
256 248 261 278 289 285 208 138 120 101 100 100 108 121 141 147 148 150 147 147 153 161 168 178 177 182 183 188 196 196 169 161 156 162 152 141 145 149 148 143 124 103 89 92 92 81 67 74 69
257 275 266 265 291 283 252 203 153 144 134 116 108 117 125 130 135 136 141 149 153 165 172 178 179 179 185 182 185 172 161 152 147 155 151 151 143 137 152 148 145 149 132 106 88 81 71 82 80
229 248 254 258 258 281 297 47 75 120 124 125 118 117 118 112 125 130 134 147 153 150 161 173 174 171 174 177 169 159 169 157 153 163 148 148 145 149 167 165 160 150 143 132 131 146 129 123 144
257 255 254 257 262 258 269 103 76 91 97 106 113 115 121 129 136 133 131 130 135 143 148 171 170 168 171 171 169 168 170 158 160 163 161 169 164 166 175 166 154 145 146 145 143 154 154 154 136